Regional Weather Roundup
Issued by NWS Nashville, TN

Home | Current Version | Previous Version | Text Only | Print | Product List | Glossary On
Versions: 1 2 3 4 5 6 7 8 9 10 11 12 13 14 15 16 17 18 19 20 21 22 23 24 25 26 27 28 29 30 31 32 33 34 35 36 37 38 39 40 41 42 43 44 45 46 47 48 49 50
000
ASUS44 KOHX 300715
RWROHX
MIDDLE TENNESSEE HOURLY WEATHER ROUNDUP
NATIONAL WEATHER SERVICE NASHVILLE TN
200 AM CDT MON MAR 30 2015

NOTE: "FAIR" INDICATES FEW OR NO CLOUDS BELOW 12,000 FEET WITH
NO SIGNIFICANT WEATHER AND/OR OBSTRUCTIONS TO VISIBILITY.

* THESE REPORTS ARE NOT UNDER NWS QUALITY CONTROL AND MAY NOT
  REPORT WEATHER SUCH AS PRECIPITATION AND FOG.


TNZ005>011-023>034-057-059-062>066-078-080-300800
...NORTHERN MIDDLE TENNESSEE...

CITY           SKY/WX    TMP DP  RH WIND       PRES   REMARKS
CLARKSVILLE    CLOUDY    52  47  83 SW6       30.07R
CROSSVILLE     CLOUDY    53  35  50 VRB5      30.06F
GALLATIN       CLOUDY    49  48  96 CALM      30.09
LIVINGSTON     CLOUDY    48  42  80 W9        30.07
NASHVILLE      LGT RAIN  52  46  80 CALM      30.09R
PORTLAND       CLOUDY    46  46 100 S6        30.06
SMYRNA         CLOUDY    50  47  89 N6        30.11R
SPARTA         CLOUDY    48  45  87 CALM      30.06R
$$
TNZ056-058-060-061-075>077-079-093>097-300800
...SOUTHERN MIDDLE TENNESSEE...

CITY           SKY/WX    TMP DP  RH WIND       PRES   REMARKS
COLUMBIA       CLOUDY   N/A N/A N/A CALM      30.05F
LEWISBURG      CLOUDY    49  47  93 S10       30.05
MCMINNVILLE    CLOUDY    50  45  81 W7        30.09R
MURFREESBORO   CLOUDY    50  46  85 W3        30.07
SHELBYVILLE    CLOUDY    50  48  93 S13       30.06F
TULLAHOMA      CLOUDY    48  46  93 W7        30.08R
WINCHESTER     MOCLDY    52  46  82 SE3       30.06F
$$


...KEY TO REMARKS...
VSB - VISIBILITY IN MILES
WCI - WIND CHILL INDEX
HX  - HEAT INDEX



USA.gov is the U.S. government's official web portal to all federal, state and local government web resources and services.